Terug naar catalogus

FENGYUN 1C DEB

ActiefSSO
NORAD 33693·DEBRIS·🇨🇳 China

Gelanceerd May 10, 1999 vanaf Taiyuan Satellite Launch Center

Loading…

Volgende Passages (komende 24 uur)

TLE

VersSource: Space-Track

Epoch: Sep 14, 2026, 10:45 UTC

1 33693U 99025DGE 26257.44802764  .00000708  00000-0  69355-3 0  9992
2 33693  99.2369  69.7993 0222223 357.4489   2.5510 13.72019368920116

Volg FENGYUN 1C DEB in realtime met AllMySat

Download on the App Store